weather.gov     
National Weather Service

Regional Weather Roundup
NWS Homepage
This page is being discontinued on March 12, 2014.
The same data is available at this site. Please update your bookmarks.
Thank you, and we apologize for the inconvenience.
Please send an email to SR-SRH.Webmaster@noaa.gov with any concerns.


Current Version
Previous Version:    01  02  03  04  05  06  07  08  09  10  11  12  13  14  15  16  17  18  19  20  21  22  23  24  25  26  27  28  29  30  
   31  32  33  34  35  36  37  38  39  40  41  42  43  44  45  46  47  48  49  50  51  52  53  54  
[Printable]
867
ASUS43 KLMK 210410
RWRKY
KENTUCKY REGIONAL WEATHER ROUNDUP
NATIONAL WEATHER SERVICE LOUISVILLE KY
1100 PM EST THU NOV 20 2014

NOTE "FAIR" INDICATES FEW OR NO CLOUDS BELOW 12,000 FEET
WITH NO SIGNIFICANT WEATHER AND/OR OBSTRUCTIONS TO VISIBILITY.

KYZ001>023-026-027-061>063-070>075-210500-
WESTERN AND SOUTH CENTRAL KENTUCKY

CITY           SKY/WX    TMP DP  RH WIND       PRES   REMARKS
PADUCAH        CLEAR     26  21  81 CALM      30.29R
HENDERSON      CLEAR     21  14  73 CALM      30.32R
OWENSBORO      CLEAR     23  20  89 MISG      30.32R
HOPKINSVILLE   NOT AVBL
BOWLING GREEN  CLEAR     27  19  72 CALM      30.31R
GLASGOW        CLEAR     26  20  77 CALM      30.30R
$$

KYZ024-025-028>034-038-045-046-053-210500-
NORTH CENTRAL KENTUCKY

CITY           SKY/WX    TMP DP  RH WIND       PRES   REMARKS
LOUISVILLE/SDF CLEAR     27  17  66 NW6       30.30R WCI  20
LOUISVILLE/LOU CLEAR     25  16  68 CALM      30.31R
FORT KNOX      CLEAR     21  16  79 W3        30.28R
$$

KYZ035>037-039>044-047>052-055>060-089>105-210500-
NORTHEAST KENTUCKY

CITY           SKY/WX    TMP DP  RH WIND       PRES   REMARKS
LEXINGTON      CLEAR     23  16  74 W6        30.27R WCI  16
COVINGTON      CLEAR     23  12  62 W5        30.25R WCI  17
FRANKFORT      CLEAR     23  16  74 CALM      30.27R
$$

KYZ054-064>069-076>088-106>120-210500-
SOUTHEAST KENTUCKY

CITY           SKY/WX    TMP DP  RH WIND       PRES   REMARKS
JACKSON        CLEAR     27  17  66 NW5       30.24R WCI  22
LONDON         CLEAR     27  18  69 CALM      30.26R
SOMERSET       PTCLDY    27  21  80 CALM      30.30R
MIDDLESBORO    CLEAR     26  23  90 CALM      30.26R
MONTICELLO     CLEAR     22  19  88 CALM      30.31R
$$





U.S. Dept. of Commerce
NOAA National Weather Service
1325 East West Highway
Silver Spring, MD 20910
E-mail: w-nws.webmaster@noaa.gov
Page last modified: May 16, 2007
NATIONAL WEATHER SERVICE: for Safety, for Work, for Fun - FOR LIFE